User: anonymous   Login
Location: Caltech
(34.1382°N, 118.1253°W)
Time: 07:23:04
(UTC-07:00)
Language:

Cosmos 676 Rocket - Orbit

View from above orbital plane
View from above orbital plane
View from above satellite
View from above satellite

Ground track
Ground track

The orbit data is extracted from the following two-line orbital elements,

1 07434U 74071B   15213.07863907  .00000118  00000-0  48960-4 0  9990
2 07434 074.0466 033.8969 0019999 115.0528 245.2704 14.36486525138183
Epoch (UTC): 01 August 2015 01:53:14
Eccentricity: 0.0019999
inclination: 74.0466°
perigee height: 756 km
apogee height: 784 km
right ascension of ascending node: 33.8969°
argument of perigee: 115.0528°
revolutions per day: 14.36486525
mean anomaly at epoch: 245.2704°
orbit number at epoch: 13818

The dashed part of the orbit path shows where the satellite is in the earth's shadow,  

DLR